Home > Weather > New York > Past weeks

Flag for USA Past 2 weeks in New York, New York, USA

Now
63 °F

Clear.


Feels Like: 63 °F
Forecast: 61 / 79 °F
Wind: No wind

Location: New York City - Central Park


UV Index: 7 (High)

Visibility: 10 mi


Pressure: 30.06 "Hg

Humidity: 63%

Dew point: 50 °F

Location of New York

Historic Weather in New York

°F

Past Weeks' High & Low Weather Summary

 TemperatureHumidityPressure
High94 °F (Jun 13, 2:51 PM)97% (Jun 14, 8:38 AM)30.07 "Hg (Jun 14, 8:38 AM)
Low61 °F (Jun 27, 5:51 AM)33% (Jun 13, 1:51 PM)29.57 "Hg (Jun 24, 6:51 AM)
Average74 °F69%29.90 "Hg
* Reported Jun 13 3:51 AM — Jun 28 3:51 AM, New York, Weather by CustomWeather, © 2014

Note: Actual official high and low records may vary slightly from our data, if they occured in-between our weather recording intervals... More about our weather records

Advertising

Historic Weather Conditions — Data for Previous 24 hours

 ConditionsComfort  
Time TempWeatherWind HumidityBarometerVisibility
3:51 AM
Jun 28
63 °FClear.No wind63%30.06 "Hg10 mi
2:51 AM63 °FClear.5 mph63%30.04 "Hg10 mi
1:51 AM66 °FClear.6 mph54%30.03 "Hg10 mi
12:51 AM67 °FClear.6 mph53%30.03 "Hg10 mi
11:51 PM
Jun 27
66 °FClear.3 mph59%30.01 "Hg10 mi
10:51 PM69 °FClear.3 mph51%29.99 "Hg10 mi
9:51 PM71 °FPassing clouds.6 mph42%29.97 "Hg10 mi
8:51 PM72 °FClear.5 mph40%29.96 "Hg10 mi
7:51 PM73 °FSunny.8 mph43%29.95 "Hg10 mi
6:51 PM73 °FSunny.No wind46%29.93 "Hg10 mi
5:51 PM73 °FPartly sunny.No wind51%29.92 "Hg10 mi
4:51 PM74 °FBroken clouds.N/A60%29.92 "Hg10 mi
3:51 PM73 °FPartly sunny.N/A55%29.93 "Hg10 mi
2:51 PM76 °FPassing clouds.3 mph52%29.93 "Hg10 mi
1:51 PM76 °FSunny.N/A54%29.94 "Hg10 mi
12:51 PM74 °FSunny.3 mph60%29.97 "Hg10 mi
11:51 AM71 °FPassing clouds.5 mph76%29.99 "Hg10 mi
10:51 AM67 °FPassing clouds.7 mph81%30.00 "Hg10 mi
9:51 AM67 °FBroken clouds.No wind79%30.00 "Hg10 mi
8:51 AM65 °FSunny.No wind87%30.01 "Hg10 mi
7:51 AM63 °FPartly sunny.3 mph93%30.01 "Hg7 mi
6:51 AM61 °FOvercast.No wind97%30.00 "Hg7 mi
6:05 AM61 °FLight rain. Fog.No wind97%30.04 "Hg4 mi
5:51 AM61 °FHeavy rain. Fog.No wind93%30.03 "Hg2 mi
4:51 AM63 °FLight rain. Overcast.No wind78%30.01 "Hg9 mi
Weather by CustomWeather, © 2014

See weather overview